Regional Weather Roundup
Issued by NWS Kansas City/Pleasant Hill, MO

Home | Current Version | Previous Version | Graphics & Text | Print | Product List | Glossary Off
Versions: 1 2 3 4 5 6 7 8 9 10 11 12 13 14 15 16 17 18 19 20 21 22 23 24 25 26 27 28 29 30 31 32 33 34 35 36 37 38 39 40 41 42 43 44 45 46 47 48 49 50

707
ASUS43 KEAX 300710
RWREAX

WEATHER ROUNDUP FOR EASTERN KANSAS AND NORTHWEST MISSOURI
NATIONAL WEATHER SERVICE KANSAS CITY/PLEASANT HILL MO
200 AM CDT SUN APR 30 2017

KSZ040-057-103>105-MOZ028-029-037-043-300800-
...KANSAS CITY METROPOLITAN AREA...

CITY           SKY/WX    TMP DP  RH WIND       PRES   REMARKS
K.C. INTL      LGT RAIN  42  41  96 N18       29.72R FOG     WCI  34
K.C. DOWNTOWN  CLOUDY   N/A N/A N/A N9G16     29.72R
LEES SUMMIT    CLOUDY    51  51 100 CALM      29.70R
OLATHE - IXD   CLOUDY    44  44 100 N20       29.69R FOG
OLATHE - OJC   CLOUDY    44  44 100 N15       29.69R FOG
LAWRENCE       CLOUDY    44  44 100 N15       29.71R

$$

MOZ001>008-011>017-020>025-030>033-038>040-044>046-053-054-300800-
...NORTHERN AND CENTRAL MISSOURI...

CITY           SKY/WX    TMP DP  RH WIND       PRES   REMARKS
ST. JOSEPH     LGT RAIN  42  42 100 NE24G31   29.76F WCI  32
MOSBY          CLOUDY    45  45 100 N17       29.69F
WHITEMAN AFB   DRIZZLE   45  45 100 E17G30    29.67F
CLINTON        LGT RAIN  48  48 100 E15G26    29.68F
SEDALIA        LGT RAIN  47  47 100 E17       29.75F
WARSAW         NOT AVBL
CHILLICOTHE      N/A     44  44 100 NE9       29.80R
KIRKSVILLE     LGT RAIN  41   7  24 E14G22    29.82F WCI  33

$$

MOZ041-047>049-056>058-063>065-088>090-097-300800-
...EASTERN AND SOUTHERN MISSOURI...

CITY           SKY/WX    TMP DP  RH WIND       PRES   REMARKS
ST. LOUIS INTL RAIN      54  52  93 N6        29.84S FOG
SPIRIT OF STL  RAIN      53  53 100 N5        29.83S FOG
COLUMBIA       RAIN      47  47 100 N13       29.83F
JEFFERSON CITY RAIN      51  46  83 NE5       29.83S
ROLLA          HVY RAIN  61  32  33 E14       29.77F
OSAGE BEACH    HVY RAIN  55  54  96 W7        29.83R FOG
SPRINGFIELD    LGT RAIN  62  61  96 E9        29.71F
BRANSON        LGT RAIN  63  63 100 E9G16     29.67F
JOPLIN         CLOUDY    64  63  96 E7        29.61F

$$

IAZ060-094-KSZ022-034>040-054-083-096-NEZ052-066-093-300800-
...KANSAS...SOUTHEAST NEBRASKA AND IOWA...

CITY           SKY/WX    TMP DP  RH WIND       PRES   REMARKS
TOPEKA         LGT RAIN  43  43 100 N20G26    29.71R FOG     WCI  34
MANHATTAN      CLOUDY    42  32  67 NE17G26   29.75F WCI  34
EMPORIA        LGT RAIN  43  43 100 N14G26    29.68R FOG
CHANUTE        CLOUDY    57  55  93 E12       29.61R
WICHITA        LGT RAIN  44  43  96 N18       29.63R FOG
OMAHA          LGT RAIN  40  36  86 N17       29.94F FOG     WCI  31
LINCOLN        LGT RAIN  40  38  93 NE21      29.90F FOG     WCI  30
FALLS CITY     LGT RAIN  41  39  93 NE17G25   29.81F FOG     WCI  32
LAMONI         CLOUDY    40  39  97 NE18G28   29.84R WCI  31
DES MOINES     DRIZZLE   41  38  89 NE17G23   29.90F WCI  32

$$





USA.gov is the U.S. government's official web portal to all federal, state and local government web resources and services.